Location: Pacheco
(37.9835°N, 122.0752°W)
Time: 10:06:26
(UTC+00:00)

DMSP B5D2-2 - Pass Details

Date: 13 April 2024
Orbit: 788 x 802 km, 98.3° (Epoch: 23 May)

Event Time Altitude Azimuth Distance (km) Brightness Sun altitude
Rises 12:10:58 0° 168° (SSE) 3,272 7.1 -16.4°
Reaches altitude 10° 12:13:17 10° 170° (S) 2,345 6.4 -16.0°
Maximum altitude 12:18:28 80° 257° (WSW) 805 4.0 -15.1°
Drops below altitude 10° 12:23:41 10° 345° (NNW) 2,357 6.6 -14.1°
Sets 12:26:01 0° 346° (NNW) 3,290 7.4 -13.7°
